GW2385 Weather Reports


time (UTC)temp
C
wind
direction
speed
KPH
gust
KPH
rain 1hr
cm
rain 24hr
cm
rain mn
cm
humidity
%
barometer
mb
20260505153152 13 173 1.6 1.6 0.00 0.00 0.00 84 1014.2
20260505152649 13 176 0.0 1.6 0.00 0.00 0.00 84 1014.2
20260505152144 13 265 4.8 4.8 0.00 0.00 0.00 83 1014.2
20260505151640 13 147 1.6 1.6 0.00 0.00 0.00 84 1014.0
20260505151138 13 181 4.8 4.8 0.00 0.00 0.00 84 1014.2
20260505150633 13 168 0.0 0.0 0.00 0.00 0.00 84 1014.0
20260505150131 13 196 1.6 3.2 0.00 0.00 0.00 84 1013.9
20260505140559 12 132 4.8 8.0 0.00 0.00 0.00 85 1013.6
20260505125013 12 155 1.6 3.2 0.00 0.00 0.00 86 1012.9
20260505124509 12 156 1.6 1.6 0.00 0.00 0.00 86 1012.9
20260505124006 12 144 1.6 3.2 0.00 0.00 0.00 86 1012.9
20260505123503 12 128 1.6 1.6 0.00 0.00 0.00 86 1012.7
20260505122958 12 156 0.0 1.6 0.00 0.00 0.00 86 1012.9
20260505122456 12 152 4.8 4.8 0.00 0.00 0.00 86 1012.8
20260505121952 12 150 1.6 3.2 0.00 0.00 0.00 87 1012.8
20260505121449 12 165 1.6 1.6 0.00 0.00 0.00 87 1012.7
20260505120945 12 161 3.2 3.2 0.00 0.00 0.00 87 1012.9
20260505120442 12 176 0.0 1.6 0.00 0.00 0.00 87 1012.7
20260505115941 12 162 1.6 1.6 0.00 0.00 0.00 87 1012.7
20260505115438 12 168 1.6 1.6 0.00 0.00 0.00 87 1012.7
20260505114936 12 194 1.6 1.6 0.00 0.00 0.00 87 1012.8
20260505114431 12 165 0.0 1.6 0.00 0.00 0.00 87 1012.5
20260505113928 12 174 1.6 1.6 0.00 0.00 0.00 87 1012.4
20260505113425 12 151 1.6 1.6 0.00 0.00 0.00 87 1012.5
20260505112920 12 152 3.2 4.8 0.00 0.00 0.00 87 1012.7
20260505112418 12 156 0.0 1.6 0.00 0.00 0.00 86 1012.6
20260505111914 12 212 1.6 3.2 0.00 0.00 0.00 86 1012.7
20260505111409 12 180 1.6 3.2 0.00 0.00 0.00 87 1012.8
20260505110906 12 179 3.2 3.2 0.00 0.00 0.00 87 1012.5
20260505110403 12 162 3.2 3.2 0.00 0.00 0.00 87 1012.5
20260505101827 12 140 4.8 4.8 0.00 0.00 0.00 88 1012.0
20260505101322 12 162 1.6 1.6 0.00 0.00 0.00 88 1012.4
20260505100818 12 142 1.6 1.6 0.00 0.00 0.00 88 1012.1
20260505100315 12 159 1.6 1.6 0.00 0.00 0.00 88 1012.2
20260505095811 12 181 6.4 9.7 0.00 0.00 0.00 88 1012.2
20260505095309 12 149 1.6 1.6 0.00 0.00 0.00 88 1012.1
20260505094804 12 145 1.6 1.6 0.00 0.00 0.00 88 1012.1
20260505094301 12 155 1.6 1.6 0.00 0.00 0.00 88 1012.1
20260505093756 12 152 1.6 1.6 0.00 0.00 0.00 89 1011.9
20260505093255 12 194 1.6 1.6 0.00 0.00 0.00 89 1011.9
20260505092751 12 169 1.6 1.6 0.00 0.00 0.00 89 1012.0
20260505092249 12 122 3.2 3.2 0.00 0.00 0.00 89 1011.7
20260505091746 12 137 1.6 3.2 0.00 0.00 0.00 89 1011.9
20260505091245 12 168 1.6 1.6 0.00 0.00 0.00 90 1011.9
20260505090743 12 158 0.0 0.0 0.00 0.00 0.00 90 1011.6
20260505090241 11 189 1.6 3.2 0.00 0.00 0.00 91 1012.0
20260505085738 11 146 1.6 3.2 0.00 0.00 0.00 92 1011.8
20260505085236 11 157 1.6 1.6 0.00 0.00 0.00 93 1011.9
20260505084733 11 159 0.0 1.6 0.00 0.00 0.00 94 1011.8
20260505084232 10 170 1.6 3.2 0.00 0.00 0.00 95 1011.7
20260505083728 10 167 0.0 1.6 0.00 0.00 0.00 95 1011.7
20260505083225 10 168 1.6 3.2 0.00 0.00 0.00 95 1011.7
20260505082721 10 170 1.6 1.6 0.00 0.00 0.00 95 1011.9
20260505082219 10 170 1.6 1.6 0.00 0.00 0.00 94 1011.7
20260505081714 10 156 1.6 1.6 0.00 0.00 0.00 94 1011.8
20260505081212 10 170 0.0 1.6 0.00 0.00 0.00 94 1011.6
20260505080709 10 158 1.6 1.6 0.00 0.00 0.00 94 1011.7
20260505080204 11 150 0.0 1.6 0.00 0.00 0.00 94 1011.6
20260505075700 10 173 1.6 1.6 0.00 0.00 0.00 94 1011.6
20260505075157 11 161 1.6 1.6 0.00 0.00 0.00 93 1011.5
20260505074654 11 147 1.6 1.6 0.00 0.00 0.00 93 1011.3
20260505074151 11 158 0.0 1.6 0.00 0.00 0.00 93 1011.5
20260505073649 11 142 1.6 1.6 0.00 0.00 0.00 93 1011.5
20260505073147 11 155 1.6 1.6 0.00 0.00 0.00 93 1011.3
20260505072642 11 158 0.0 1.6 0.00 0.00 0.00 92 1011.3
20260505072139 11 147 1.6 1.6 0.00 0.00 0.00 92 1011.3
20260505071635 11 172 0.0 0.0 0.00 0.00 0.00 92 1011.1
20260505071133 11 156 0.0 0.0 0.00 0.00 0.00 92 1011.1
20260505070630 11 142 0.0 0.0 0.00 0.00 0.00 91 1011.1
20260505070126 11 145 0.0 1.6 0.00 0.00 0.00 92 1011.0
20260505065622 11 180 1.6 1.6 0.00 0.00 0.00 92 1011.1
20260505065119 11 160 0.0 0.0 0.00 0.00 0.00 91 1011.0
20260505064616 11 168 0.0 1.6 0.00 0.00 0.00 91 1011.1
20260505064114 11 170 1.6 1.6 0.00 0.00 0.00 91 1010.9
20260505063611 11 135 1.6 1.6 0.00 0.00 0.00 90 1010.9
20260505063107 11 173 0.0 1.6 0.00 0.00 0.00 90 1010.7
20260505062603 12 152 1.6 1.6 0.00 0.00 0.00 90 1010.9
20260505062101 12 166 1.6 1.6 0.00 0.00 0.00 90 1010.7
20260505061558 12 178 0.0 0.0 0.00 0.00 0.00 89 1010.8
20260505061056 12 124 1.6 1.6 0.00 0.00 0.00 88 1010.5
20260505060553 12 133 0.0 0.0 0.00 0.00 0.00 88 1010.5
20260505060050 12 153 3.2 3.2 0.00 0.00 0.00 88 1010.5
20260505055545 12 161 0.0 0.0 0.00 0.00 0.00 88 1010.4
20260505055042 12 156 0.0 0.0 0.00 0.00 0.00 87 1010.4
20260505054539 12 172 0.0 1.6 0.00 0.00 0.00 86 1010.2
20260505054038 13 164 0.0 0.0 0.00 0.00 0.00 85 1010.3
20260505053534 13 137 0.0 0.0 0.00 0.00 0.00 84 1010.1
20260505053031 13 159 0.0 0.0 0.00 0.00 0.00 83 1010.2
20260505052528 13 161 0.0 0.0 0.00 0.00 0.00 82 1010.0
20260505052025 13 187 1.6 1.6 0.00 0.00 0.00 83 1010.2
20260505051522 13 146 0.0 0.0 0.00 0.00 0.00 82 1010.1
20260505051020 14 159 0.0 0.0 0.00 0.00 0.00 82 1010.2
20260505050518 14 217 1.6 1.6 0.00 0.00 0.00 80 1010.0
20260505041445 16 187 3.2 3.2 0.00 0.00 0.00 74 1009.6
20260505040943 16 74 0.0 1.6 0.00 0.00 0.00 73 1009.4
20260505040440 16 138 0.0 1.6 0.00 0.00 0.00 73 1009.5
20260505035937 16 196 3.2 3.2 0.00 0.00 0.00 72 1009.4
20260505035433 16 168 0.0 0.0 0.00 0.00 0.00 71 1009.3
20260505034931 16 163 1.6 1.6 0.00 0.00 0.00 72 1009.0
20260505034427 17 141 1.6 3.2 0.00 0.00 0.00 72 1009.2
20260505033924 17 160 0.0 1.6 0.00 0.00 0.00 69 1008.9
20260505033420 17 205 3.2 3.2 0.00 0.00 0.00 69 1008.9
20260505032919 18 159 0.0 0.0 0.00 0.00 0.00 68 1008.7
20260505032416 18 111 0.0 0.0 0.00 0.00 0.00 66 1008.7
20260505031912 18 136 0.0 0.0 0.00 0.00 0.00 65 1008.7
20260505031409 18 93 0.0 1.6 0.00 0.00 0.00 65 1008.4
20260505030906 19 157 0.0 1.6 0.00 0.00 0.00 64 1008.7
20260505030402 19 177 1.6 1.6 0.00 0.00 0.00 64 1008.7
20260505025857 20 111 0.0 0.0 0.00 0.00 0.00 63 1008.4
20260505025355 20 175 1.6 1.6 0.00 0.00 0.00 63 1008.3
20260505024854 20 149 0.0 0.0 0.00 0.00 0.00 64 1008.2
20260505024351 20 147 0.0 0.0 0.00 0.00 0.00 61 1008.4
20260505023848 20 172 0.0 0.0 0.00 0.00 0.00 61 1008.1
20260505023345 21 140 0.0 0.0 0.00 0.00 0.00 59 1008.1
20260505022842 21 161 0.0 0.0 0.00 0.00 0.00 59 1008.3
20260505022339 21 176 1.6 1.6 0.00 0.00 0.00 57 1007.9
20260505021836 21 151 0.0 1.6 0.00 0.00 0.00 57 1008.0
20260505021333 21 190 3.2 3.2 0.00 0.00 0.00 57 1008.0
20260505020828 22 146 0.0 1.6 0.00 0.00 0.00 54 1007.8
20260505020324 22 146 0.0 0.0 0.00 0.00 0.00 53 1008.0
20260505015821 23 204 4.8 8.0 0.00 0.00 0.00 51 1007.9
20260505015318 24 220 0.0 1.6 0.00 0.00 0.00 49 1007.8
20260505014816 23 198 0.0 0.0 0.00 0.00 0.00 50 1008.0
20260505014313 23 78 3.2 3.2 0.00 0.00 0.00 50 1008.2
20260505013809 24 154 3.2 3.2 0.00 0.00 0.00 50 1007.9
20260505013306 25 241 3.2 3.2 0.00 0.00 0.00 48 1007.7
20260505012805 24 127 0.0 0.0 0.00 0.00 0.00 50 1007.8
20260505012304 25 48 3.2 3.2 0.00 0.00 0.00 49 1007.8
20260505011758 25 219 1.6 3.2 0.00 0.00 0.00 48 1008.1
20260505011255 25 136 4.8 4.8 0.00 0.00 0.00 48 1007.7
20260505010750 25 190 3.2 3.2 0.00 0.00 0.00 48 1007.9
20260505010247 25 250 1.6 1.6 0.00 0.00 0.00 48 1007.9
20260505005743 26 74 3.2 4.8 0.00 0.00 0.00 48 1007.9
20260505005240 26 185 0.0 1.6 0.00 0.00 0.00 48 1007.9
20260505004737 26 141 0.0 1.6 0.00 0.00 0.00 47 1007.9
20260505004233 26 28 1.6 1.6 0.00 0.00 0.00 47 1007.8
20260505003731 26 196 1.6 1.6 0.00 0.00 0.00 46 1007.8
20260505003229 26 12 1.6 4.8 0.00 0.00 0.00 46 1007.9
20260505002725 26 6 1.6 1.6 0.00 0.00 0.00 47 1007.7
20260505002222 27 182 0.0 1.6 0.00 0.00 0.00 45 1007.8
20260505001720 26 149 0.0 1.6 0.00 0.00 0.00 47 1007.8
20260505001217 27 44 1.6 1.6 0.00 0.00 0.00 45 1007.8
20260505000714 27 176 1.6 3.2 0.00 0.00 0.00 46 1007.7
20260505000212 26 102 1.6 3.2 0.00 0.00 0.00 46 1007.8
20260504235708 27 144 1.6 3.2 0.00 0.00 0.00 46 1007.6
20260504235204 26 172 1.6 3.2 0.00 0.00 0.00 45 1007.6
20260504234702 27 209 3.2 4.8 0.00 0.00 0.00 46 1007.6
20260504234159 27 274 3.2 4.8 0.00 0.00 0.00 45 1007.6
20260504233655 27 36 1.6 1.6 0.00 0.00 0.00 44 1007.7
20260504233151 27 96 4.8 4.8 0.00 0.00 0.00 44 1007.7
20260504232649 28 98 0.0 1.6 0.00 0.00 0.00 44 1007.8
20260504232145 27 156 0.0 1.6 0.00 0.00 0.00 44 1007.8
20260504231642 27 126 0.0 1.6 0.00 0.00 0.00 40 1008.0
20260504231138 28 165 1.6 1.6 0.00 0.00 0.00 42 1007.9
20260504230635 27 117 1.6 1.6 0.00 0.00 0.00 42 1007.8
20260504230134 27 59 3.2 3.2 0.00 0.00 0.00 41 1008.1
20260504225632 28 93 0.0 1.6 0.00 0.00 0.00 41 1008.1
20260504225127 27 197 1.6 3.2 0.00 0.00 0.00 39 1008.1
20260504224624 28 43 1.6 3.2 0.00 0.00 0.00 41 1008.1
20260504224121 28 172 1.6 1.6 0.00 0.00 0.00 43 1008.1
20260504223618 27 154 0.0 1.6 0.00 0.00 0.00 43 1008.1
20260504223114 28 31 4.8 4.8 0.00 0.00 0.00 42 1008.1
20260504222611 28 189 1.6 1.6 0.00 0.00 0.00 43 1008.2
20260504222108 28 153 1.6 1.6 0.00 0.00 0.00 42 1008.1
20260504221605 27 179 0.0 0.0 0.00 0.00 0.00 42 1008.2
20260504221102 27 150 1.6 1.6 0.00 0.00 0.00 44 1008.4
20260504220558 27 265 3.2 3.2 0.00 0.00 0.00 43 1008.3
20260504220055 27 188 0.0 1.6 0.00 0.00 0.00 47 1008.3
20260504215552 27 172 1.6 1.6 0.00 0.00 0.00 44 1008.3
20260504215050 27 148 0.0 1.6 0.00 0.00 0.00 45 1008.5
20260504214545 27 182 3.2 3.2 0.00 0.00 0.00 46 1008.5
20260504214042 26 96 3.2 3.2 0.00 0.00 0.00 46 1008.4
20260504213538 27 210 4.8 4.8 0.00 0.00 0.00 44 1008.6
20260504213036 26 175 1.6 1.6 0.00 0.00 0.00 44 1008.6
20260504212531 27 205 1.6 1.6 0.00 0.00 0.00 43 1008.7
20260504212029 27 186 3.2 3.2 0.00 0.00 0.00 45 1008.5
20260504211526 26 218 1.6 1.6 0.00 0.00 0.00 46 1008.7
20260504211023 27 235 6.4 8.0 0.00 0.00 0.00 44 1008.7
20260504210520 27 257 3.2 4.8 0.00 0.00 0.00 42 1008.5
20260504210016 27 116 0.0 0.0 0.00 0.00 0.00 43 1008.7
20260504205514 26 208 1.6 3.2 0.00 0.00 0.00 42 1008.6
20260504205012 27 155 0.0 1.6 0.00 0.00 0.00 42 1008.7
20260504204510 26 172 0.0 1.6 0.00 0.00 0.00 43 1008.7
20260504204009 26 23 3.2 3.2 0.00 0.00 0.00 42 1008.9
20260504203506 26 194 0.0 1.6 0.00 0.00 0.00 43 1008.8
20260504203003 26 181 1.6 1.6 0.00 0.00 0.00 41 1008.9
20260504202459 26 174 0.0 1.6 0.00 0.00 0.00 42 1008.9
20260504201955 26 52 3.2 3.2 0.00 0.00 0.00 43 1008.9
20260504201453 26 267 6.4 8.0 0.00 0.00 0.00 45 1008.8
20260504200950 26 221 4.8 8.0 0.00 0.00 0.00 45 1008.9
20260504200447 26 149 1.6 3.2 0.00 0.00 0.00 44 1008.9
20260504195943 26 203 1.6 3.2 0.00 0.00 0.00 42 1009.0
20260504195439 26 205 1.6 1.6 0.00 0.00 0.00 41 1009.0
20260504194936 26 171 0.0 1.6 0.00 0.00 0.00 42 1009.1
20260504194432 25 205 1.6 1.6 0.00 0.00 0.00 45 1009.0
20260504193928 26 96 3.2 4.8 0.00 0.00 0.00 39 1009.0
20260504193426 26 180 0.0 0.0 0.00 0.00 0.00 41 1008.9
20260504192924 25 164 1.6 1.6 0.00 0.00 0.00 43 1009.0
20260504192421 24 183 1.6 3.2 0.00 0.00 0.00 44 1009.0
20260504191920 24 218 1.6 1.6 0.00 0.00 0.00 43 1009.1
20260504191418 25 193 4.8 8.0 0.00 0.00 0.00 42 1009.2
20260504190913 25 171 1.6 3.2 0.00 0.00 0.00 46 1009.4
20260504190409 24 171 0.0 1.6 0.00 0.00 0.00 47 1009.2
20260504185906 23 240 4.8 4.8 0.00 0.00 0.00 47 1009.4
20260504185403 25 86 1.6 1.6 0.00 0.00 0.00 47 1009.3
20260504184858 25 147 0.0 0.0 0.00 0.00 0.00 46 1009.4
20260504184354 23 160 1.6 1.6 0.00 0.00 0.00 49 1009.4
20260504183851 23 59 0.0 1.6 0.00 0.00 0.00 48 1009.5
20260504183348 23 22 1.6 3.2 0.00 0.00 0.00 50 1009.4
20260504182846 22 62 3.2 4.8 0.00 0.00 0.00 51 1009.7
20260504182343 22 41 3.2 4.8 0.00 0.00 0.00 52 1009.5
20260504181839 22 120 0.0 1.6 0.00 0.00 0.00 52 1009.6
20260504181337 22 225 3.2 3.2 0.00 0.00 0.00 52 1009.6
20260504180836 22 94 1.6 1.6 0.00 0.00 0.00 53 1009.7
20260504180334 22 159 1.6 1.6 0.00 0.00 0.00 50 1009.7
20260504175832 21 158 0.0 0.0 0.00 0.00 0.00 54 1009.6
20260504175328 21 128 1.6 1.6 0.00 0.00 0.00 54 1009.6
20260504174827 22 34 3.2 3.2 0.00 0.00 0.00 52 1009.5
20260504174324 22 163 1.6 3.2 0.00 0.00 0.00 50 1009.8
20260504173820 22 165 1.6 1.6 0.00 0.00 0.00 53 1009.8
20260504173317 21 160 0.0 0.0 0.00 0.00 0.00 56 1009.6
20260504172814 21 174 1.6 1.6 0.00 0.00 0.00 56 1009.7
20260504172311 21 130 6.4 8.0 0.00 0.00 0.00 56 1009.8
20260504171807 20 190 1.6 3.2 0.00 0.00 0.00 56 1009.7
20260504171304 21 129 0.0 0.0 0.00 0.00 0.00 55 1009.5
20260504170801 20 158 1.6 1.6 0.00 0.00 0.00 57 1009.4
20260504170258 20 252 4.8 4.8 0.00 0.00 0.00 56 1009.5
20260504160216 17 147 0.0 1.6 0.00 0.00 0.00 70 1009.2